Flag for Poland Weather past 2 weeks in Toruń, Poland

Now
58 °F

Thunderstorms. Overcast.


Feels Like: 58 °F
Forecast: 42 / 55 °F
Wind: 2 mph from South

Location: Torun

Current Time: Apr 28, 2015 at 12:30:39 AM

Latest Report: Apr 27, 2015 at 11:00 PM


Visibility: 2 mi

Pressure: 29.60 "Hg

Humidity: 88%

Dew point: 54 °F

Location of ToruńLocation

Historic Weather in Toruń — Graph

°F

Toruń temperature yesterday

Maximum temperature yesterday: 74 °F (at 5:00 PM)
Minimum temperature yesterday: 49 °F (at 6:00 AM)
Average temperature yesterday: 63 °F

Past Weeks' High & Low Weather Summary

 TemperatureHumidityPressure
High74 °F (Apr 27, 5:00 PM)95% (Apr 22, 6:00 AM)30.27 "Hg (Apr 22, 6:00 AM)
Low29 °F (Apr 22, 6:00 AM)26% (Apr 25, 2:00 PM)29.56 "Hg (Apr 27, 7:00 PM)
Average50 °F61%29.98 "Hg
* Reported Apr 12 10:00 PM — Apr 27 10:00 PM, Toruń, Weather by CustomWeather, © 2015

Note: Actual official high and low records may vary slightly from our data, if they occured in-between our weather recording intervals... More about our weather records

Advertising

Toruń weather history for previous 24 hours

 ConditionsComfort  
Time TempWeatherWind HumidityBarometerVisibility
10:00 PM
Mon, Apr 27
60 °FThundershowers. Overcast.5 mph81%29.58 "Hg12 mi
9:00 PM69 °FThundershowers. Overcast.3 mph53%29.57 "Hg19 mi
8:00 PM70 °FThunderstorms. Overcast.3 mph46%29.56 "Hg28 mi
7:00 PM72 °FOvercast.3 mph42%29.56 "Hg31 mi
6:00 PM73 °FOvercast.5 mph41%29.57 "Hg28 mi
5:00 PM74 °FOvercast.5 mph41%29.59 "Hg28 mi
4:00 PM74 °FPartly sunny.6 mph41%29.60 "Hg25 mi
3:00 PM73 °FPartly sunny.6 mph39%29.61 "Hg25 mi
2:00 PM73 °FPartly sunny.6 mph43%29.63 "Hg17 mi
1:00 PM73 °FScattered clouds.6 mph42%29.65 "Hg22 mi
12:00 PM70 °FPassing clouds.7 mph44%29.67 "Hg22 mi
11:00 AM68 °FPassing clouds.5 mph50%29.68 "Hg17 mi
10:00 AM66 °FPassing clouds.5 mph62%29.69 "Hg17 mi
9:00 AM60 °FPassing clouds.2 mph77%29.70 "Hg10 mi
8:00 AM54 °FFog.2 mph89%29.71 "Hg4 mi
7:00 AM50 °FFog.2 mph95%29.72 "Hg2 mi
6:00 AM49 °FFog.2 mph95%29.71 "Hg2 mi
5:00 AM50 °FFog.2 mph94%29.72 "Hg2 mi
4:00 AM51 °FFog.2 mph92%29.72 "Hg4 mi
3:00 AM52 °FFog.2 mph91%29.72 "Hg4 mi
2:00 AM53 °FPassing clouds.2 mph89%29.73 "Hg6 mi
1:00 AM53 °FPassing clouds.2 mph88%29.73 "Hg7 mi
12:00 AM54 °FClear.2 mph89%29.73 "Hg6 mi
Weather by CustomWeather, © 2015

See weather overviewHow to use our weather pages